This is the latest recevied weather packets stored in our database for station/object DX1GM-13. If no packets are shown the sender has not sent any weather packets the latest 1 day(s).
| Time | Temp. | Humidity | Pressure | Rain* | Wind** | Luminosity | Snow |
|---|---|---|---|---|---|---|---|
| 1778136604 | 12.22° C | 73% | 1017.1 hPa | 0 mm | - | - | - |
| 1778136303 | 12.78° C | 76% | 1017 hPa | 0 mm | - | - | - |
| 1778136003 | 12.78° C | 79% | 1017 hPa | 0 mm | - | - | - |
| 1778135703 | 12.22° C | 81% | 1016.7 hPa | 0 mm | - | - | - |
| 1778135403 | 11.67° C | 82% | 1016.9 hPa | 0 mm | - | - | - |
| 1778135103 | 11.11° C | 82% | 1016.6 hPa | 0 mm | - | - | - |
| 1778134803 | 11.11° C | 83% | 1016.5 hPa | 0 mm | - | - | - |
| 1778134503 | 11.11° C | 85% | 1016.7 hPa | 0 mm | - | - | - |
| 1778134203 | 10.56° C | 85% | 1016.6 hPa | 0 mm | - | - | - |
| 1778133903 | 10.56° C | 85% | 1016.3 hPa | 0 mm | - | - | - |
| 1778133603 | 10.56° C | 85% | 1016.4 hPa | 0 mm | - | - | - |
| 1778133303 | 10.56° C | 85% | 1016.5 hPa | 0 mm | - | - | - |
| 1778133003 | 10° C | 85% | 1016.4 hPa | 0 mm | - | - | - |
| 1778132703 | 10° C | 85% | 1016.3 hPa | 0 mm | - | - | - |
| 1778132403 | 10° C | 85% | 1016.2 hPa | 0 mm | - | - | - |
| 1778132103 | 10° C | 86% | 1016.1 hPa | 0 mm | - | - | - |
| 1778131803 | 10° C | 87% | 1016.1 hPa | 0 mm | - | - | - |
| 1778131503 | 10° C | 87% | 1016.2 hPa | 0 mm | - | - | - |
| 1778131203 | 10° C | 87% | 1016.1 hPa | 0 mm | - | - | - |
| 1778130903 | 10° C | 87% | 1015.9 hPa | 0 mm | - | - | - |
| 1778130603 | 9.44° C | 87% | 1015.8 hPa | 0 mm | - | - | - |
| 1778130303 | 9.44° C | 87% | 1015.8 hPa | 0 mm | - | - | - |
| 1778130003 | 9.44° C | 87% | 1015.8 hPa | 0 mm | - | - | - |
| 1778129703 | 9.44° C | 87% | 1015.5 hPa | 0 mm | - | - | - |
| 1778129403 | 9.44° C | 88% | 1015.8 hPa | 0 mm | - | - | - |
* Rain latest hour (hover to see other rain measurements)
** Current wind speed in m/s (hover to see current wind gust speed)